• In Hungary
  • List of Countries
  • For 7 days
  • Water Temperature
  • Satellite Maps
  • Weather Map
  • News
  • Weather Widgets
  • user-avatar
    Login

    Hourly Weather Rokycany

    Today, 18 October, Wednesday

    Time Temperature Precipitation Wind Pressure Humidity
    00:00 +12°C° 0 mm 0 mps 731 mmHg 83%
    01:00 +11°C° 0 mm 0 mps 731 mmHg 84%
    02:00 +11°C° 0 mm 0 mps 731 mmHg 85%
    03:00 +11°C° 0 mm 0 mps 730 mmHg 86%
    04:00 +10°C° 0 mm 0 mps 730 mmHg 86%
    05:00 +10°C° 0 mm 0 mps 730 mmHg 87%
    06:00 +10°C° 0 mm 0 mps 730 mmHg 87%
    07:00 +10°C° 0 mm 0 mps 730 mmHg 88%
    08:00 +12°C° 0 mm 0 mps 730 mmHg 81%
    09:00 +15°C° 0 mm 1 mps 730 mmHg 74%
    10:00 +16°C° 0 mm 1 mps 730 mmHg 68%
    11:00 +19°C° 0 mm 1 mps 730 mmHg 64%
    12:00 +20°C° 0 mm 1 mps 729 mmHg 60%
    13:00 +21°C° 0 mm 1 mps 729 mmHg 56%
    14:00 +20°C° 0 mm 1 mps 729 mmHg 59%
    15:00 +20°C° 0 mm 1 mps 729 mmHg 63%
    16:00 +19°C° 0 mm 1 mps 728 mmHg 66%
    17:00 +18°C° 0 mm 1 mps 728 mmHg 72%
    18:00 +15°C° 0 mm 1 mps 728 mmHg 77%
    19:00 +12°C° 0 mm 0 mps 728 mmHg 83%
    20:00 +13°C° 0 mm 1 mps 728 mmHg 84%
    21:00 +13°C° 0 mm 1 mps 728 mmHg 85%
    22:00 +12°C° 0 mm 1 mps 728 mmHg 86%
    23:00 +12°C° 0 mm 1 mps 728 mmHg 87%

    Tomorrow, 19 October, Thursday

    Time Temperature Precipitation Wind Pressure Humidity
    00:00 +11°C° 0 mm 1 mps 728 mmHg 87%
    01:00 +11°C° 0 mm 1 mps 728 mmHg 87%
    02:00 +11°C° 0 mm 1 mps 728 mmHg 87%
    03:00 +10°C° 0 mm 1 mps 728 mmHg 87%
    04:00 +10°C° 0 mm 1 mps 728 mmHg 87%
    05:00 +10°C° 0 mm 1 mps 728 mmHg 87%
    06:00 +10°C° 0 mm 1 mps 728 mmHg 86%
    07:00 +10°C° 0 mm 1 mps 728 mmHg 85%
    08:00 +12°C° 0 mm 1 mps 729 mmHg 77%
    09:00 +13°C° 0 mm 0 mps 729 mmHg 68%
    10:00 +15°C° 0 mm 0 mps 729 mmHg 60%
    11:00 +17°C° 0 mm 0 mps 729 mmHg 56%
    12:00 +18°C° 0 mm 0 mps 729 mmHg 52%
    13:00 +19°C° 0 mm 0 mps 729 mmHg 48%
    14:00 +18°C° 0 mm 0 mps 728 mmHg 51%
    15:00 +20°C° 0 mm 1 mps 728 mmHg 55%
    16:00 +19°C° 0 mm 1 mps 728 mmHg 59%
    17:00 +16°C° 0 mm 1 mps 728 mmHg 65%
    18:00 +15°C° 0 mm 1 mps 728 mmHg 70%
    19:00 +13°C° 0 mm 1 mps 728 mmHg 76%
    20:00 +12°C° 0 mm 1 mps 728 mmHg 78%
    21:00 +12°C° 0 mm 1 mps 728 mmHg 80%
    22:00 +12°C° 0 mm 1 mps 729 mmHg 82%
    23:00 +11°C° 0 mm 1 mps 728 mmHg 83%

    Day after tomorrow, 20 October, Friday

    Time Temperature Precipitation Wind Pressure Humidity
    00:00 +11°C° 0 mm 1 mps 728 mmHg 85%
    01:00 +11°C° 0 mm 1 mps 728 mmHg 86%
    02:00 +10°C° 0 mm 1 mps 728 mmHg 87%
    03:00 +10°C° 0 mm 1 mps 728 mmHg 88%
    04:00 +10°C° 0 mm 1 mps 728 mmHg 89%
    05:00 +10°C° 0 mm 1 mps 729 mmHg 89%
    06:00 +9°C° 0 mm 1 mps 729 mmHg 90%
    07:00 +9°C° 0 mm 1 mps 729 mmHg 90%
    08:00 +11°C° 0 mm 1 mps 729 mmHg 83%
    09:00 +13°C° 0 mm 1 mps 730 mmHg 75%
    10:00 +15°C° 0 mm 1 mps 730 mmHg 68%
    11:00 +18°C° 0 mm 1 mps 730 mmHg 63%
    12:00 +19°C° 0 mm 1 mps 730 mmHg 59%
    13:00 +20°C° 0 mm 1 mps 730 mmHg 54%
    14:00 +19°C° 0 mm 1 mps 729 mmHg 58%
    15:00 +19°C° 0 mm 1 mps 729 mmHg 62%
    16:00 +18°C° 0 mm 1 mps 729 mmHg 66%
    17:00 +16°C° 0 mm 1 mps 729 mmHg 71%
    18:00 +14°C° 0 mm 1 mps 730 mmHg 77%
    19:00 +13°C° 0 mm 1 mps 730 mmHg 83%
    20:00 +12°C° 0 mm 1 mps 730 mmHg 84%
    21:00 +12°C° 0 mm 1 mps 730 mmHg 86%
    22:00 +12°C° 0 mm 1 mps 731 mmHg 88%
    23:00 +11°C° 0 mm 1 mps 730 mmHg 88%

    21 October, Saturday

    Time Temperature Precipitation Wind Pressure Humidity
    00:00 +11°C° 0 mm 1 mps 730 mmHg 89%
    01:00 +11°C° 0 mm 1 mps 730 mmHg 90%
    02:00 +11°C° 0 mm 1 mps 730 mmHg 90%
    03:00 +11°C° 0 mm 1 mps 730 mmHg 90%
    04:00 +11°C° 0 mm 1 mps 730 mmHg 90%
    05:00 +11°C° 0 mm 1 mps 730 mmHg 89%
    06:00 +11°C° 0 mm 1 mps 730 mmHg 88%
    07:00 +11°C° 0 mm 1 mps 730 mmHg 86%
    08:00 +13°C° 0 mm 1 mps 730 mmHg 81%
    09:00 +14°C° 0 mm 1 mps 731 mmHg 75%
    10:00 +16°C° 0 mm 1 mps 731 mmHg 69%
    11:00 +18°C° 0 mm 1 mps 730 mmHg 64%
    12:00 +18°C° 0 mm 2 mps 730 mmHg 59%
    13:00 +20°C° 0 mm 2 mps 730 mmHg 54%
    14:00 +19°C° 0 mm 2 mps 730 mmHg 57%
    15:00 +20°C° 0 mm 1 mps 730 mmHg 61%
    16:00 +19°C° 0 mm 1 mps 729 mmHg 65%
    17:00 +18°C° 0 mm 1 mps 729 mmHg 69%
    18:00 +16°C° 0 mm 1 mps 729 mmHg 73%
    19:00 +14°C° 0 mm 1 mps 730 mmHg 77%
    20:00 +14°C° 0 mm 1 mps 730 mmHg 78%
    21:00 +14°C° 0 mm 1 mps 730 mmHg 79%
    22:00 +14°C° 0 mm 1 mps 730 mmHg 80%
    23:00 +13°C° 0 mm 1 mps 730 mmHg 82%

    22 October, Sunday

    Time Temperature Precipitation Wind Pressure Humidity
    00:00 +13°C° 0 mm 1 mps 730 mmHg 84%
    01:00 +13°C° 0 mm 1 mps 730 mmHg 86%
    02:00 +13°C° 0 mm 1 mps 730 mmHg 88%
    03:00 +12°C° 0 mm 1 mps 730 mmHg 91%
    04:00 +12°C° 0 mm 1 mps 730 mmHg 93%
    05:00 +12°C° 0.1 mm 1 mps 730 mmHg 92%
    06:00 +12°C° 0.1 mm 2 mps 730 mmHg 92%
    07:00 +12°C° 0.1 mm 2 mps 730 mmHg 91%
    08:00 +12°C° 0.4 mm 2 mps 730 mmHg 90%
    09:00 +11°C° 0.4 mm 3 mps 731 mmHg 89%
    10:00 +11°C° 0.4 mm 3 mps 731 mmHg 87%
    11:00 +11°C° 0.7 mm 3 mps 731 mmHg 87%
    12:00 +10°C° 0.7 mm 3 mps 731 mmHg 87%
    13:00 +10°C° 0.7 mm 3 mps 731 mmHg 87%
    14:00 +10°C° 0.5 mm 3 mps 731 mmHg 87%
    15:00 +10°C° 0.5 mm 3 mps 731 mmHg 87%
    16:00 +10°C° 0.5 mm 3 mps 732 mmHg 87%
    17:00 +9°C° 0.2 mm 3 mps 732 mmHg 87%
    18:00 +9°C° 0.2 mm 3 mps 732 mmHg 87%
    19:00 +9°C° 0.2 mm 3 mps 733 mmHg 87%
    20:00 +8°C° 0 mm 3 mps 733 mmHg 87%
    21:00 +8°C° 0 mm 3 mps 733 mmHg 87%
    22:00 +8°C° 0 mm 3 mps 734 mmHg 87%
    23:00 +7°C° 0 mm 3 mps 734 mmHg 88%

    23 October, Monday

    Time Temperature Precipitation Wind Pressure Humidity
    00:00 +7°C° 0 mm 3 mps 734 mmHg 89%
    01:00 +5°C° 0 mm 3 mps 734 mmHg 90%
    02:00 +5°C° 0 mm 3 mps 734 mmHg 91%
    03:00 +5°C° 0 mm 3 mps 734 mmHg 91%
    04:00 +5°C° 0 mm 3 mps 734 mmHg 92%
    05:00 +5°C° 0 mm 4 mps 735 mmHg 91%
    06:00 +5°C° 0 mm 4 mps 735 mmHg 90%
    07:00 +5°C° 0 mm 4 mps 735 mmHg 89%
    08:00 +6°C° 0 mm 5 mps 735 mmHg 86%
    09:00 +6°C° 0 mm 5 mps 736 mmHg 83%
    10:00 +7°C° 0 mm 5 mps 736 mmHg 80%
    11:00 +7°C° 0 mm 5 mps 736 mmHg 78%
    12:00 +8°C° 0 mm 5 mps 735 mmHg 76%
    13:00 +8°C° 0 mm 6 mps 735 mmHg 74%
    14:00 +9°C° 0 mm 5 mps 735 mmHg 74%
    15:00 +9°C° 0 mm 5 mps 735 mmHg 75%
    16:00 +10°C° 0 mm 4 mps 735 mmHg 75%
    17:00 +8°C° 0 mm 4 mps 735 mmHg 78%
    18:00 +8°C° 0 mm 4 mps 735 mmHg 81%
    19:00 +8°C° 0 mm 3 mps 735 mmHg 84%
    20:00 +8°C° 0 mm 3 mps 735 mmHg 84%
    21:00 +8°C° 0 mm 3 mps 735 mmHg 83%
    22:00 +7°C° 0 mm 3 mps 735 mmHg 83%
    23:00 +7°C° 0 mm 3 mps 734 mmHg 83%
    Show more